TimePDT,TemperatureF,Dew PointF,Humidity,Sea Level PressureIn,VisibilityMPH,Wind Direction,Wind SpeedMPH,Gust SpeedMPH,PrecipitationIn,Events,Conditions,WindDirDegrees,DateUTC
12:15 AM,51.8,48.2,88,30.02,10.0,Calm,Calm,-,N/A,,Clear,0,2013-09-24 07:15:00
12:35 AM,51.8,48.2,88,30.02,9.0,Calm,Calm,-,N/A,,Clear,0,2013-09-24 07:35:00
12:55 AM,51.8,48.2,88,30.01,10.0,Calm,Calm,-,N/A,,Clear,0,2013-09-24 07:55:00
1:15 AM,50.0,48.2,94,30.01,10.0,Calm,Calm,-,N/A,,Clear,0,2013-09-24 08:15:00
1:35 AM,50.0,48.2,94,30.01,10.0,Calm,Calm,-,N/A,,Scattered Clouds,0,2013-09-24 08:35:00
1:55 AM,51.8,48.2,88,30.01,10.0,Calm,Calm,-,N/A,,Scattered Clouds,0,2013-09-24 08:55:00
2:15 AM,50.0,48.2,94,30.01,10.0,Calm,Calm,-,N/A,,Mostly Cloudy,0,2013-09-24 09:15:00
2:35 AM,50.0,48.2,94,30.01,10.0,Calm,Calm,-,N/A,,Overcast,0,2013-09-24 09:35:00
2:55 AM,50.0,48.2,94,30.01,10.0,Calm,Calm,-,N/A,,Overcast,0,2013-09-24 09:55:00
3:15 AM,51.8,48.2,88,30.00,10.0,Calm,Calm,-,N/A,,Overcast,0,2013-09-24 10:15:00
3:35 AM,51.8,48.2,88,30.00,10.0,Calm,Calm,-,N/A,,Overcast,0,2013-09-24 10:35:00
3:55 AM,51.8,48.2,88,30.00,10.0,Calm,Calm,-,N/A,,Overcast,0,2013-09-24 10:55:00
4:15 AM,51.8,48.2,88,29.99,10.0,Calm,Calm,-,N/A,,Overcast,0,2013-09-24 11:15:00
4:35 AM,51.8,48.2,88,29.99,10.0,Calm,Calm,-,N/A,,Overcast,0,2013-09-24 11:35:00
4:55 AM,51.8,48.2,88,29.98,10.0,Calm,Calm,-,N/A,,Overcast,0,2013-09-24 11:55:00
5:15 AM,50.0,48.2,94,29.98,4.0,Calm,Calm,-,N/A,,Overcast,0,2013-09-24 12:15:00
5:35 AM,50.0,48.2,94,29.98,10.0,Calm,Calm,-,N/A,,Overcast,0,2013-09-24 12:35:00
5:55 AM,50.0,48.2,94,29.97,10.0,Calm,Calm,-,N/A,,Mostly Cloudy,0,2013-09-24 12:55:00
6:15 AM,48.2,48.2,100,29.97,8.0,Calm,Calm,-,N/A,,Mostly Cloudy,0,2013-09-24 13:15:00
6:35 AM,48.2,48.2,100,29.97,9.0,Calm,Calm,-,N/A,,Overcast,0,2013-09-24 13:35:00
6:55 AM,48.2,46.4,93,29.96,10.0,Calm,Calm,-,N/A,,Mostly Cloudy,0,2013-09-24 13:55:00
7:15 AM,48.2,46.4,93,29.96,9.0,Calm,Calm,-,N/A,,Scattered Clouds,0,2013-09-24 14:15:00
7:35 AM,48.2,46.4,93,29.96,9.0,Calm,Calm,-,N/A,,Partly Cloudy,0,2013-09-24 14:35:00
7:55 AM,50.0,48.2,94,29.96,10.0,Calm,Calm,-,N/A,,Mostly Cloudy,0,2013-09-24 14:55:00
8:15 AM,50.0,48.2,94,29.96,10.0,Calm,Calm,-,N/A,,Overcast,0,2013-09-24 15:15:00
8:35 AM,51.8,48.2,88,29.97,10.0,Calm,Calm,-,N/A,,Scattered Clouds,0,2013-09-24 15:35:00
8:55 AM,51.8,48.2,88,29.97,10.0,SE,3.5,-,N/A,,Partly Cloudy,140,2013-09-24 15:55:00
9:15 AM,51.8,50.0,94,29.97,10.0,Calm,Calm,-,N/A,,Mostly Cloudy,0,2013-09-24 16:15:00
9:35 AM,53.6,50.0,88,29.97,10.0,ESE,4.6,-,N/A,,Overcast,110,2013-09-24 16:35:00
9:55 AM,55.4,51.8,88,29.97,10.0,SSE,3.5,-,N/A,,Overcast,160,2013-09-24 16:55:00
10:15 AM,55.4,51.8,88,29.97,8.0,SSE,4.6,-,N/A,,Overcast,150,2013-09-24 17:15:00
10:35 AM,55.4,50.0,82,29.97,10.0,SE,3.5,-,N/A,,Overcast,140,2013-09-24 17:35:00
10:55 AM,55.4,51.8,88,29.97,8.0,Calm,Calm,-,N/A,,Overcast,0,2013-09-24 17:55:00
11:15 AM,55.4,51.8,88,29.97,8.0,South,3.5,-,0.01,,Mostly Cloudy,190,2013-09-24 18:15:00
11:35 AM,55.4,51.8,88,29.97,10.0,Calm,Calm,-,0.01,,Overcast,0,2013-09-24 18:35:00
11:55 AM,55.4,48.2,77,29.96,10.0,Calm,Calm,-,0.02,,Overcast,0,2013-09-24 18:55:00
12:15 PM,57.2,48.2,72,29.95,10.0,Calm,Calm,-,N/A,,Mostly Cloudy,0,2013-09-24 19:15:00
12:35 PM,57.2,48.2,72,29.94,10.0,South,3.5,-,N/A,,Partly Cloudy,170,2013-09-24 19:35:00
12:55 PM,59.0,48.2,67,29.94,10.0,SE,4.6,-,N/A,,Clear,140,2013-09-24 19:55:00
1:15 PM,60.8,48.2,63,29.93,10.0,SSE,5.8,-,N/A,,Clear,160,2013-09-24 20:15:00
1:35 PM,60.8,48.2,63,29.92,10.0,SSE,8.1,-,N/A,,Clear,160,2013-09-24 20:35:00
1:55 PM,60.8,48.2,63,29.92,10.0,SSE,5.8,-,N/A,,Partly Cloudy,150,2013-09-24 20:55:00
2:15 PM,60.8,48.2,63,29.91,10.0,SSE,6.9,-,N/A,,Mostly Cloudy,150,2013-09-24 21:15:00
2:35 PM,60.8,48.2,63,29.91,10.0,South,12.7,16.1,N/A,,Overcast,170,2013-09-24 21:35:00
2:55 PM,55.4,44.6,67,29.93,9.0,NW,4.6,-,0.05,,Overcast,320,2013-09-24 21:55:00
3:15 PM,51.8,46.4,82,29.92,8.0,North,6.9,-,0.16,,Overcast,360,2013-09-24 22:15:00
3:35 PM,51.8,48.2,88,29.92,10.0,Calm,Calm,-,0.19,,Overcast,0,2013-09-24 22:35:00
3:55 PM,53.6,48.2,82,29.93,10.0,Calm,Calm,-,0.19,,Overcast,0,2013-09-24 22:55:00
4:15 PM,53.6,48.2,82,29.93,7.0,ENE,3.5,-,0.06,,Mostly Cloudy,60,2013-09-24 23:15:00
4:35 PM,53.6,50.0,88,29.92,10.0,Calm,Calm,-,0.07,,Overcast,0,2013-09-24 23:35:00
4:55 PM,53.6,50.0,88,29.92,9.0,Calm,Calm,-,0.08,,Overcast,0,2013-09-24 23:55:00
5:15 PM,53.6,50.0,88,29.92,10.0,Calm,Calm,-,0.01,,Overcast,0,2013-09-25 00:15:00
5:35 PM,53.6,48.2,82,29.91,10.0,ENE,4.6,-,0.01,,Mostly Cloudy,70,2013-09-25 00:35:00
5:55 PM,53.6,48.2,82,29.91,10.0,Calm,Calm,-,0.01,,Overcast,0,2013-09-25 00:55:00
6:15 PM,53.6,48.2,82,29.91,10.0,Calm,Calm,-,N/A,,Overcast,0,2013-09-25 01:15:00
6:35 PM,53.6,48.2,82,29.90,10.0,Calm,Calm,-,N/A,,Overcast,0,2013-09-25 01:35:00
6:55 PM,53.6,48.2,82,29.91,10.0,Calm,Calm,-,N/A,,Overcast,0,2013-09-25 01:55:00
7:15 PM,53.6,48.2,82,29.90,10.0,Calm,Calm,-,N/A,,Overcast,0,2013-09-25 02:15:00
7:35 PM,53.6,48.2,82,29.90,10.0,Calm,Calm,-,N/A,,Overcast,0,2013-09-25 02:35:00
7:55 PM,53.6,48.2,82,29.90,10.0,SE,3.5,-,N/A,,Overcast,140,2013-09-25 02:55:00
8:15 PM,51.8,48.2,88,29.90,10.0,SE,4.6,-,N/A,,Overcast,130,2013-09-25 03:15:00
8:35 PM,51.8,48.2,88,29.90,10.0,Calm,Calm,-,N/A,,Overcast,0,2013-09-25 03:35:00
8:55 PM,51.8,48.2,88,29.90,10.0,SE,5.8,-,N/A,,Overcast,140,2013-09-25 03:55:00
9:15 PM,51.8,48.2,88,29.91,10.0,SE,5.8,-,N/A,,Overcast,130,2013-09-25 04:15:00
9:35 PM,51.8,48.2,88,29.90,10.0,ESE,4.6,-,0.01,,Overcast,120,2013-09-25 04:35:00
9:55 PM,51.8,48.2,88,29.90,10.0,SE,3.5,-,0.01,,Overcast,140,2013-09-25 04:55:00
10:15 PM,51.8,48.2,88,29.90,10.0,SE,5.8,-,N/A,,Overcast,140,2013-09-25 05:15:00
10:35 PM,51.8,46.4,82,29.90,10.0,SSE,4.6,-,N/A,,Overcast,150,2013-09-25 05:35:00
10:55 PM,51.8,48.2,88,29.90,10.0,SSW,3.5,-,N/A,,Overcast,200,2013-09-25 05:55:00
11:15 PM,51.8,48.2,88,29.90,10.0,SE,4.6,-,N/A,,Overcast,130,2013-09-25 06:15:00
11:35 PM,51.8,48.2,88,29.90,10.0,Calm,Calm,-,N/A,,Mostly Cloudy,0,2013-09-25 06:35:00
11:55 PM,51.8,48.2,88,29.90,10.0,Calm,Calm,-,N/A,,Overcast,0,2013-09-25 06:55:00